Date,TemperatureHighF,TemperatureAvgF,TemperatureLowF,DewpointHighF,DewpointAvgF,DewpointLowF,HumidityHigh,HumidityAvg,HumidityLow,PressureMaxIn,PressureMinIn,WindSpeedMaxMPH,WindSpeedAvgMPH,GustSpeedMaxMPH,PrecipitationSumIn
2013-1-1,16,12,9,11,4,-1,85,71,52,30.23,30.06,11,1,11,0.00
2013-1-2,21,18,15,17,13,11,90,83,75,30.13,30.04,11,1,11,0.00
2013-1-3,23,19,16,19,14,10,88,80,70,30.11,29.90,13,2,14,0.00
2013-1-4,34,23,14,21,15,9,84,72,54,30.17,29.90,14,2,14,0.01
2013-1-5,31,24,18,21,18,14,88,78,65,30.19,29.86,10,0,10,0.00
2013-1-6,26,23,15,23,18,11,90,80,69,30.22,29.86,14,2,14,0.00
2013-1-7,35,27,16,24,19,9,85,72,60,30.18,29.84,22,3,22,0.00
2013-1-8,39,29,18,29,22,15,91,77,54,30.10,29.77,15,1,15,0.02
2013-1-9,34,31,22,29,23,16,83,73,65,30.43,29.76,20,3,20,0.00
2013-1-10,43,30,17,30,20,13,90,70,33,30.48,29.92,13,1,13,0.00
2013-1-11,39,36,33,37,34,30,94,93,90,29.92,29.50,13,1,13,0.17
2013-1-12,44,32,18,42,26,11,95,80,70,29.97,29.42,22,3,22,0.00
2013-1-13,18,15,8,12,8,3,83,74,66,30.13,29.92,11,1,11,0.00
2013-1-14,20,10,5,7,3,0,93,73,55,30.41,30.13,14,1,14,0.01
2013-1-15,26,15,3,14,7,-1,91,69,45,30.42,29.91,14,2,14,0.00
2013-1-16,27,21,12,22,15,5,87,75,60,30.11,29.60,20,4,20,0.00
2013-1-17,12,6,2,5,-2,-4,92,72,58,30.40,30.11,14,2,14,0.00
2013-1-18,17,9,1,13,5,-4,92,81,75,30.40,29.83,4,0,6,0.00
2013-1-19,35,22,5,31,18,-1,98,85,75,29.87,29.53,20,3,20,0.02
2013-1-20,8,3,-3,2,-3,-9,87,75,64,30.24,29.84,20,2,20,0.00
2013-1-21,-3,-8,-12,-9,-16,-21,77,70,58,30.26,30.11,12,2,12,0.00
2013-1-22,-1,-8,-15,-9,-15,-21,77,72,65,30.39,30.25,8,0,8,0.00
2013-1-23,8,-2,-10,2,-7,-16,87,76,68,30.57,30.14,12,2,12,0.00
2013-1-24,8,0,-15,2,-8,-21,84,69,55,30.75,30.42,9,0,9,0.00
2013-1-25,21,12,6,12,7,2,85,80,66,30.42,29.97,9,1,9,0.00
2013-1-26,22,17,10,13,10,6,87,75,62,30.42,30.19,14,1,14,0.00
2013-1-27,32,25,18,25,17,11,91,73,54,30.33,29.92,16,1,16,0.00
2013-1-28,36,30,28,30,28,25,92,88,80,29.95,29.84,12,1,12,0.01
2013-1-29,35,32,30,33,30,27,93,91,88,29.84,29.51,16,2,16,0.00
2013-1-30,30,18,10,28,15,5,91,85,81,29.61,29.43,20,5,20,0.00
2013-1-31,11,8,5,7,3,1,92,81,70,30.05,29.52,13,3,13,0.00
2013-2-1,6,0,-6,3,-6,-12,84,76,64,30.23,30.05,7,1,7,0.00
2013-2-2,11,0,-12,2,-6,-17,85,75,65,30.22,30.03,6,0,6,0.00
2013-2-3,10,5,-2,4,-1,-7,82,76,62,30.07,29.93,11,1,11,0.00
2013-2-4,13,-1,-15,2,-8,-20,96,72,57,30.10,29.94,5,0,5,0.00
2013-2-5,20,11,-1,14,6,-6,86,79,65,30.12,29.76,14,1,14,0.00
2013-2-6,24,10,-6,16,5,-11,90,80,55,30.27,30.12,10,0,10,0.00
2013-2-7,23,19,17,21,16,12,90,88,82,30.30,30.18,8,1,8,0.00
2013-2-8,22,14,7,13,9,3,87,79,63,30.44,30.30,10,1,10,0.00
2013-2-9,28,18,9,19,13,6,98,83,64,30.43,30.14,14,2,14,0.00
2013-2-10,32,26,20,31,24,17,94,92,90,30.14,29.36,13,1,13,0.00
2013-2-11,33,27,20,32,25,17,94,91,87,29.89,29.28,9,2,9,0.00
2013-2-12,23,20,18,18,17,15,96,85,78,29.98,29.78,12,1,12,0.00
2013-2-13,37,27,18,28,22,15,90,83,65,29.78,29.66,7,0,7,0.01
2013-2-14,29,23,14,26,19,8,90,83,76,30.04,29.66,16,3,16,0.00
2013-2-15,18,10,-2,10,4,-6,85,76,62,30.23,30.03,9,1,9,0.00
2013-2-16,13,4,-10,4,-3,-15,88,74,56,30.27,30.18,12,1,12,0.00
2013-2-17,23,5,-18,6,-6,-23,92,63,41,30.28,30.01,13,1,13,0.00
2013-2-18,36,27,16,29,21,5,91,78,61,30.01,29.48,14,2,14,0.03
2013-2-19,27,13,8,24,8,2,91,80,69,30.15,29.46,19,6,19,0.00
2013-2-20,16,10,5,8,4,0,91,77,67,30.51,30.15,19,4,19,0.00
2013-2-21,26,16,5,17,11,0,90,82,66,30.57,30.30,11,2,11,0.00
2013-2-22,23,20,18,20,18,15,91,89,88,30.30,29.84,12,2,12,0.00
2013-2-23,32,23,13,28,20,10,91,88,83,29.92,29.80,7,1,7,0.00
2013-2-24,32,26,17,23,20,13,92,79,65,30.15,29.92,6,1,6,0.01
2013-2-25,34,26,14,26,21,10,92,79,66,30.18,30.12,9,0,9,0.00
2013-2-26,32,29,26,27,24,22,87,80,69,30.16,29.91,13,2,13,0.00
2013-2-27,31,29,27,26,25,23,92,84,79,29.93,29.82,18,5,18,0.00
2013-2-28,29,24,19,27,18,14,92,81,69,30.25,29.93,20,5,20,0.00
2013-3-1,25,18,9,14,10,4,81,72,50,30.39,30.25,13,3,13,0.00
2013-3-2,23,15,7,10,6,2,85,70,48,30.36,30.27,12,2,12,0.00
2013-3-3,25,14,4,5,1,-3,74,57,41,30.23,30.17,6,0,6,0.00
2013-3-4,31,12,-5,15,4,-10,85,69,46,30.26,30.18,10,1,10,0.00
2013-3-11,21,20,20,17,17,16,88,87,85,29.70,29.68,4,2,12,0.00
2013-3-12,24,19,16,18,15,12,96,84,76,30.04,29.69,11,2,11,0.00
2013-3-13,26,19,11,14,10,5,92,69,48,30.31,30.04,13,3,13,0.05
2013-3-14,38,19,0,23,8,-4,85,65,40,30.30,30.05,11,1,11,0.11
2013-3-15,26,20,12,15,10,6,84,64,51,30.02,29.96,9,2,13,0.00
2013-3-16,22,16,9,13,8,4,92,73,56,30.20,30.00,14,2,15,0.00
2013-3-17,25,11,-8,5,-1,-13,82,60,37,30.36,30.20,12,1,12,0.01
2013-3-18,32,27,22,25,22,19,89,83,63,29.71,29.50,10,1,10,0.00
2013-3-19,23,19,16,18,13,10,94,78,64,29.92,29.50,13,3,13,0.00
2013-3-20,20,15,8,12,8,3,92,76,64,30.07,29.91,15,3,15,0.00
2013-3-21,23,18,12,16,12,8,86,78,67,30.08,30.03,14,2,14,0.00
2013-3-22,30,22,6,22,16,2,90,80,69,30.15,30.07,12,1,12,0.00
2013-3-23,31,26,21,22,20,17,87,78,68,30.21,30.15,7,1,7,0.01
2013-3-24,30,26,19,22,20,15,86,77,70,30.18,29.98,13,2,13,0.00
2013-3-25,31,26,18,24,20,15,91,81,70,30.19,29.99,19,3,19,0.00
2013-3-26,35,30,24,28,24,19,89,79,61,30.27,30.18,15,2,15,0.00
2013-3-27,40,29,16,23,18,13,92,66,45,30.33,30.27,12,2,15,0.01
2013-3-28,45,31,15,22,17,10,83,58,35,30.36,30.28,9,1,9,0.00
2013-3-29,48,34,14,22,17,11,87,55,29,30.35,30.17,8,0,8,0.00
2013-3-30,38,35,34,36,29,19,93,80,51,30.18,29.76,12,2,12,0.43
2013-3-31,36,30,20,34,25,11,93,80,57,29.91,29.62,19,4,23,0.02
2013-4-1,24,20,17,15,11,6,83,66,48,30.14,29.91,16,3,16,0.00
2013-4-2,30,22,11,13,8,3,79,55,34,30.35,30.14,14,2,14,0.00
2013-4-3,41,25,5,14,8,0,81,51,26,30.49,30.15,16,2,16,0.00
2013-4-4,43,37,29,30,23,14,70,56,42,30.15,29.95,18,3,22,0.01
2013-4-5,39,30,18,21,15,11,84,55,32,30.29,30.10,6,1,11,0.00
2013-4-6,39,33,27,33,28,20,92,84,63,30.17,29.55,11,1,11,0.37
2013-4-7,37,33,30,32,29,27,93,86,75,30.00,29.56,12,2,13,0.14
2013-4-8,32,32,32,28,28,28,85,85,85,30.05,29.85,0,0,0,0.00
2013-4-9,32,32,32,28,28,28,85,85,85,30.14,29.96,0,0,0,0.00
2013-4-10,39,34,29,28,21,15,85,61,39,30.21,30.05,12,2,12,0.00
2013-4-11,35,35,35,16,16,16,44,44,44,30.12,29.70,2,2,2,0.00
2013-4-12,35,35,35,16,16,16,44,44,44,29.71,29.59,2,2,2,0.00
2013-4-13,37,33,29,29,20,13,83,60,44,29.97,29.63,13,3,13,0.11
2013-4-14,40,32,29,28,24,21,89,74,53,30.04,29.75,11,3,11,0.04
2013-4-15,47,37,30,37,28,25,89,72,43,29.85,29.57,26,3,26,0.39
2013-4-16,42,39,34,31,26,23,79,61,50,30.39,29.84,11,2,11,0.00
2013-4-17,42,38,26,30,27,24,91,64,56,30.42,30.04,11,2,11,0.00
2013-4-18,39,36,33,35,32,22,93,83,65,30.05,29.28,10,2,10,0.13
2013-4-19,35,27,21,33,24,15,93,86,74,29.87,29.12,15,5,15,0.00
2013-4-20,33,25,14,17,15,11,87,66,51,30.45,29.87,11,3,11,0.01
2013-4-21,41,33,23,28,22,14,95,62,51,30.51,30.21,18,2,18,0.00
2013-4-22,40,37,35,38,32,26,94,85,70,30.24,30.09,7,0,7,0.07
2013-4-23,38,34,31,36,30,26,93,88,79,30.09,29.91,15,2,15,0.24
2013-4-24,47,38,18,26,24,16,93,60,38,30.01,29.88,16,2,16,0.02
2013-4-25,49,42,31,30,24,13,90,50,34,30.22,29.87,11,2,11,0.07
2013-4-26,62,51,34,38,31,12,89,48,39,30.22,30.06,13,2,13,0.02
2013-4-27,72,61,34,44,39,30,89,46,31,30.14,29.95,9,1,9,0.00
2013-4-28,70,64,47,45,42,25,80,45,35,29.95,29.71,16,3,16,0.00
2013-5-7,72,72,72,36,36,36,27,27,27,29.96,29.92,0,0,4,0.00
2013-5-8,79,72,53,43,39,36,66,31,24,29.99,29.90,9,0,9,0.00
2013-5-9,74,53,36,45,38,17,91,65,28,30.15,29.93,16,2,16,0.14
2013-5-10,59,46,31,34,29,21,91,57,25,30.14,29.90,10,1,10,0.00
2013-5-11,55,42,34,32,29,10,90,63,37,29.98,29.77,22,3,22,0.01
2013-5-12,40,35,30,30,23,18,82,63,42,30.15,29.98,21,5,21,0.00
2013-5-13,58,48,30,27,22,10,65,36,24,30.17,29.83,12,3,12,0.00
2013-5-14,68,59,40,45,37,24,77,45,30,29.83,29.44,12,3,12,0.00
2013-5-15,70,66,54,45,40,33,67,40,29,29.76,29.47,14,5,14,0.00
2013-5-16,71,54,0,39,31,0,64,33,22,30.05,29.76,11,1,11,0.00
2013-5-17,67,59,44,44,39,23,76,48,31,30.14,30.04,10,0,10,0.00
2013-5-18,69,61,49,53,48,43,91,63,50,30.11,29.92,10,1,10,0.01
2013-5-19,84,72,56,62,57,43,91,60,44,29.93,29.72,12,1,12,0.00
2013-5-20,82,74,60,62,57,46,84,58,36,29.73,29.56,16,1,16,0.00
2013-5-21,77,71,63,60,56,41,86,62,45,29.68,29.54,6,1,6,0.06
2013-5-22,65,54,45,58,50,44,95,85,77,29.99,29.67,10,2,10,0.01
2013-5-23,50,45,35,46,35,28,87,70,52,30.37,29.99,16,4,16,0.00
2013-5-24,66,53,32,37,32,29,93,48,31,30.47,30.27,5,1,5,0.16
2013-5-25,68,60,41,40,36,19,81,42,32,30.41,30.26,9,1,9,0.00
2013-5-26,70,61,42,38,34,26,80,38,24,30.35,30.17,11,2,11,0.00
2013-5-27,72,62,44,42,37,18,62,40,31,30.19,29.92,14,1,14,0.00
2013-5-28,62,58,52,51,46,40,79,67,44,29.92,29.73,5,0,5,0.00
2013-5-29,78,64,55,61,55,50,94,75,45,29.86,29.74,12,0,12,0.00
2013-5-30,85,74,63,67,63,51,93,68,49,29.78,29.63,12,2,12,0.01
2013-5-31,82,75,61,61,58,54,91,57,42,29.67,29.56,19,3,19,0.00
2013-6-1,75,68,54,59,56,52,94,67,53,29.75,29.55,7,1,7,0.00
2013-6-2,67,55,38,56,48,29,93,77,68,29.97,29.75,15,2,15,0.00
2013-6-10,76,73,72,62,61,59,70,67,60,29.80,29.75,3,0,3,0.00
2013-6-11,80,71,58,62,57,47,95,63,40,29.86,29.76,12,1,12,0.00
2013-6-12,82,72,52,56,50,46,93,47,31,29.87,29.72,10,0,10,0.00
2013-6-13,73,56,0,53,45,0,89,59,46,30.11,29.78,13,2,13,0.00
2013-6-14,77,66,46,52,47,37,94,54,25,30.16,29.95,5,0,5,0.00
2013-6-15,69,62,58,55,54,40,89,77,52,29.95,29.77,2,0,2,0.00
2013-6-16,77,68,57,58,52,47,94,61,37,29.85,29.75,11,2,11,0.00
2013-6-17,72,60,54,56,51,32,94,74,43,30.07,29.80,9,3,9,0.00
2013-6-18,72,61,40,48,44,33,95,56,32,30.15,30.06,7,1,7,0.00
2013-6-19,77,68,50,51,46,31,73,47,34,30.12,29.99,9,0,9,0.00
2013-6-20,76,72,59,63,58,50,80,60,47,30.08,30.01,9,0,9,0.00
2013-6-21,74,68,59,65,62,48,94,81,67,30.05,29.77,5,0,5,0.00
2013-6-22,74,67,59,65,62,56,96,85,71,30.08,29.91,9,0,9,0.00
2013-6-23,83,73,62,72,66,56,94,79,64,29.92,29.73,12,1,12,0.00
2013-6-24,85,77,65,67,65,56,93,67,45,29.89,29.75,6,1,7,0.00
2013-6-25,89,79,66,67,64,55,94,62,36,29.79,29.71,3,0,3,0.00
2013-6-26,87,80,66,71,69,54,94,68,58,29.74,29.63,9,1,9,0.00
2013-6-27,84,76,66,71,66,57,94,72,43,29.72,29.61,9,0,9,0.00
2013-6-28,71,67,61,64,61,58,93,82,74,29.71,29.58,10,1,10,0.00
2013-6-29,70,65,58,60,55,46,93,70,51,29.92,29.69,13,2,13,0.00
2013-6-30,78,69,50,50,47,42,84,48,33,30.08,29.92,11,1,11,0.00
2013-7-1,78,70,53,56,52,49,94,53,43,30.16,30.08,6,0,6,0.00
2013-7-2,80,69,48,51,47,34,89,48,28,30.16,30.04,5,0,5,0.00
2013-7-3,81,72,56,58,51,36,84,48,29,30.08,29.94,8,0,8,0.00
2013-7-4,84,75,62,62,58,55,89,56,38,29.97,29.89,9,1,9,0.00
2013-7-5,87,78,64,62,59,49,80,53,37,29.94,29.85,11,1,11,0.00
2013-7-6,91,81,68,65,61,58,77,53,35,29.89,29.82,9,1,12,0.00
2013-7-7,85,79,66,73,67,63,94,67,54,29.90,29.80,7,0,7,0.00
2013-7-8,82,75,64,72,68,59,95,79,60,29.95,29.84,5,0,7,0.00
2013-7-9,78,74,68,70,68,66,94,81,73,29.96,29.65,8,0,8,0.00
2013-7-10,73,67,60,68,58,50,89,73,55,29.98,29.70,13,2,13,0.00
2013-7-11,83,64,0,57,48,0,93,49,37,30.10,29.97,4,0,4,0.00
2013-7-12,84,76,59,63,59,41,81,57,45,30.08,29.98,10,1,11,0.00
2013-7-13,86,77,64,64,60,56,77,56,44,30.10,29.99,8,1,9,0.00
2013-7-14,89,79,64,66,62,49,79,57,41,30.17,30.10,10,1,10,0.00
2013-7-15,90,81,66,70,66,63,91,63,44,30.23,30.15,5,0,6,0.00
2013-7-16,94,84,72,74,70,61,91,65,48,30.18,30.07,11,1,11,0.00
2013-7-17,92,84,74,74,69,61,86,63,46,30.15,30.04,12,1,12,0.00
2013-7-18,92,84,82,74,70,68,71,63,50,30.04,29.64,16,1,16,0.00
2013-7-19,83,76,68,70,65,56,94,68,54,29.74,29.54,17,2,17,0.00
2013-7-20,73,66,57,58,52,44,85,60,41,30.02,29.74,9,2,9,0.00
2013-7-21,71,63,51,56,52,39,86,67,54,30.03,29.89,10,1,10,0.00
2013-7-22,82,71,56,66,61,47,92,70,55,29.89,29.57,13,1,13,0.00
2013-7-23,77,65,54,66,52,44,82,64,51,30.00,29.67,18,3,18,0.00
2013-7-24,74,64,50,56,51,36,92,63,42,30.06,29.97,5,0,5,0.00
2013-7-25,79,67,55,62,57,46,87,72,50,29.98,29.83,14,1,14,0.00
2013-7-26,66,54,0,62,51,0,95,74,78,29.93,29.78,13,1,13,0.00
2013-7-27,56,38,0,52,35,0,93,62,77,29.90,29.82,6,1,6,0.00
2013-7-28,53,52,50,50,49,45,95,88,83,29.99,29.80,15,3,15,0.00
2013-7-29,75,62,50,55,51,47,94,69,44,30.12,29.99,6,2,6,0.00
2013-7-30,71,67,58,61,58,45,91,72,63,30.14,30.03,6,1,6,0.00
2013-7-31,76,69,61,63,59,51,94,71,58,30.03,29.86,11,1,11,0.00
2013-8-1,72,67,55,56,54,49,89,64,48,29.88,29.82,9,1,9,0.00
2013-8-2,70,66,55,56,52,41,94,63,51,29.95,29.77,12,1,12,0.00
2013-8-3,69,64,53,54,52,50,89,66,55,30.15,29.95,14,2,14,0.00
2013-8-4,71,63,48,52,49,39,95,61,43,30.22,30.05,5,1,5,0.00
2013-8-5,64,61,54,62,55,48,94,81,56,30.05,29.81,4,0,4,0.00
2013-8-6,78,68,62,67,60,57,95,77,54,29.83,29.67,10,1,10,0.00
2013-8-7,70,67,63,58,54,45,82,64,49,29.98,29.64,13,1,13,0.00
2013-8-8,74,64,52,60,53,38,91,68,47,30.02,29.93,7,0,7,0.00
2013-8-9,67,64,59,58,53,47,90,67,51,30.05,29.90,10,1,10,0.00
2013-8-10,74,66,53,55,53,42,94,63,46,30.12,30.05,7,1,7,0.00
2013-8-11,75,68,56,58,55,42,88,64,44,30.07,29.97,5,1,5,0.00
2013-8-12,73,65,57,59,55,49,92,69,51,30.03,29.88,15,3,15,0.00
2013-8-13,61,58,57,51,49,44,76,71,58,30.17,30.02,13,4,13,0.00
2013-8-14,67,58,44,50,48,42,94,69,51,30.20,30.09,6,1,6,0.00
2013-8-15,75,61,46,57,49,42,90,69,44,30.11,30.06,6,1,7,0.00
2013-8-16,81,63,48,59,52,46,95,72,39,30.16,30.10,7,0,7,0.00
2013-8-17,83,67,55,60,56,53,93,70,38,30.20,30.10,10,0,10,0.00
2013-8-18,82,67,55,60,56,52,91,69,43,30.16,30.00,9,1,9,0.00
2013-8-19,82,70,59,66,61,54,87,75,58,30.01,29.89,12,1,12,0.00
2013-8-20,87,74,63,69,65,60,93,75,53,29.96,29.86,11,2,11,0.00
2013-8-21,89,73,62,73,67,60,94,82,56,29.97,29.79,11,1,11,0.43
2013-8-22,78,65,54,61,54,48,95,70,41,30.15,29.96,9,0,9,0.00
2013-8-23,80,63,48,59,54,46,95,74,46,30.21,30.10,6,0,6,0.01
2013-8-24,82,69,58,62,58,54,88,68,47,30.20,30.02,12,2,12,0.00
2013-8-25,93,79,68,74,70,62,92,74,53,30.03,29.88,13,2,13,0.03
2013-8-26,87,76,66,74,70,65,95,83,61,29.97,29.83,15,1,15,0.68
2013-8-27,78,72,68,73,69,66,95,91,82,29.93,29.79,5,0,5,0.79
2013-8-28,86,72,61,68,64,59,95,79,47,30.02,29.87,3,0,3,0.01
2013-8-29,87,71,63,70,66,60,95,83,53,30.04,29.81,11,1,11,0.11
2013-8-30,71,68,63,68,63,60,94,85,72,29.91,29.74,14,2,14,0.03
2013-8-31,83,68,56,66,61,54,95,80,49,29.90,29.74,5,0,5,0.00
2013-9-1,73,65,55,65,60,52,94,85,71,29.84,29.64,13,2,13,0.09
2013-9-2,57,53,48,52,49,46,92,86,75,30.02,29.84,13,2,13,0.00
2013-9-3,75,59,47,55,50,45,95,75,45,30.05,29.92,6,0,6,0.01
2013-9-4,67,59,46,57,50,44,90,73,48,30.18,29.93,8,1,8,0.00
2013-9-5,72,56,43,53,47,41,94,73,43,30.32,30.18,4,0,4,0.00
2013-9-6,80,65,51,70,60,49,93,85,65,30.19,29.87,7,1,7,0.17
2013-9-7,81,68,52,70,62,49,92,83,66,30.08,29.83,13,1,13,0.15
2013-9-8,72,58,47,56,51,45,95,80,51,30.16,29.98,7,0,7,0.01
2013-9-9,69,62,56,68,60,52,95,93,85,29.98,29.67,5,0,5,0.05
2013-9-10,81,70,64,70,65,61,95,86,61,29.87,29.69,9,1,9,0.02
2013-9-11,79,66,58,63,59,52,95,79,54,29.94,29.86,9,0,9,0.00
2013-9-12,59,54,47,53,49,43,93,82,66,30.19,29.93,14,1,14,0.00
2013-9-13,60,49,39,46,42,37,92,79,52,30.26,30.12,8,1,8,0.00
2013-9-14,68,55,43,53,47,40,93,76,51,30.13,29.95,13,1,13,0.05
2013-9-15,56,50,39,53,47,37,94,89,77,30.31,29.95,10,1,10,0.18
2013-9-16,62,46,36,46,39,34,95,78,46,30.47,30.31,4,0,4,0.00
2013-9-17,68,52,37,51,44,35,93,77,48,30.37,30.07,10,1,10,0.00
2013-9-18,63,59,54,61,56,51,95,92,87,30.08,29.84,7,0,7,0.00
2013-9-19,75,66,62,69,64,61,95,92,81,29.85,29.64,10,0,10,0.63
2013-9-20,71,60,48,62,57,46,95,89,57,29.76,29.60,9,1,9,0.11
2013-9-21,48,46,41,47,42,38,94,86,72,30.00,29.75,13,2,13,0.04
2013-9-22,55,45,38,42,39,36,95,81,58,30.12,30.00,5,0,5,0.00
2013-9-23,65,50,38,51,43,36,94,81,58,30.16,30.07,7,0,7,0.00
2013-9-24,69,53,41,54,48,39,95,83,58,30.11,30.00,5,0,5,0.00
2013-9-25,70,55,44,54,48,42,95,81,47,30.04,29.97,4,0,4,0.01
2013-9-26,72,56,44,54,49,42,95,80,49,30.09,30.02,6,0,7,0.01
2013-9-27,78,62,50,56,51,46,92,71,42,30.11,29.99,18,1,18,0.00
2013-9-28,75,61,51,60,53,45,92,75,56,30.02,29.68,21,2,21,0.16
2013-9-29,69,55,44,48,44,40,93,72,36,29.97,29.83,5,0,10,0.00
2013-9-30,71,58,48,48,46,43,86,65,39,29.93,29.70,15,2,17,0.00
2013-10-1,76,63,55,57,47,36,82,58,29,29.88,29.64,12,1,12,0.00
2013-10-2,72,57,47,47,40,34,73,54,26,30.05,29.88,4,0,4,0.00
2013-10-3,62,54,48,52,48,44,92,81,64,30.01,29.89,6,0,6,0.55
2013-10-4,58,53,51,51,49,48,92,86,74,30.11,29.96,6,0,6,0.04
2013-10-5,52,50,48,50,48,47,95,93,88,30.10,29.74,7,1,7,0.74
2013-10-6,57,54,47,56,51,45,96,91,79,29.74,29.62,7,0,7,0.22
2013-10-7,54,47,41,46,41,36,94,80,56,30.04,29.64,13,2,13,0.01
2013-10-8,71,55,40,48,43,36,87,65,40,30.11,29.98,22,2,22,0.00
2013-10-9,73,61,53,51,47,45,77,62,42,30.10,30.01,17,2,17,0.00
2013-10-10,73,57,44,48,45,42,94,68,35,30.13,30.04,11,1,11,0.00
2013-10-11,70,57,46,55,49,44,95,77,56,30.07,29.91,12,1,12,0.00
2013-10-12,67,57,48,58,47,38,86,71,48,30.00,29.78,21,1,21,0.00
2013-10-13,52,47,36,44,39,31,86,73,54,30.42,30.00,10,1,10,0.00
2013-10-14,55,44,33,40,34,29,92,70,46,30.48,30.23,7,0,7,0.00
2013-10-15,51,48,43,49,45,38,94,90,81,30.23,29.68,7,0,9,0.47
2013-10-16,50,43,36,49,40,34,94,89,78,29.89,29.68,11,2,11,0.06
2013-10-17,51,41,33,41,36,31,94,84,60,29.89,29.76,5,0,5,0.01
2013-10-18,43,40,33,41,38,30,94,91,87,29.88,29.76,7,1,7,0.13
2013-10-19,48,37,31,37,32,29,94,84,55,29.85,29.67,14,1,14,0.14
2013-10-20,42,36,34,36,34,31,94,90,73,29.81,29.67,7,0,7,0.17
2013-10-21,35,33,29,34,29,23,94,86,68,29.79,29.67,15,2,15,0.04
2013-10-22,38,34,31,33,30,27,93,86,73,29.98,29.71,13,2,13,0.05
2013-10-23,36,33,29,30,28,24,90,82,65,29.97,29.90,12,2,12,0.01
2013-10-24,37,33,30,33,30,28,92,88,73,30.23,29.96,8,1,8,0.01
2013-10-25,45,36,29,37,29,25,91,76,56,30.26,29.63,21,2,21,0.01
2013-10-26,44,38,35,38,31,26,87,76,64,30.02,29.62,16,3,21,0.02
2013-10-27,47,38,33,34,30,28,92,75,51,30.19,29.81,14,2,14,0.01
2013-10-28,36,31,23,29,22,18,84,69,51,30.53,30.19,12,1,12,0.00
2013-10-29,36,28,21,31,24,17,98,84,58,30.53,30.23,6,0,6,0.00
2013-10-30,47,39,33,46,37,31,95,93,92,30.24,29.75,7,0,7,0.11
2013-10-31,50,48,44,49,46,43,95,95,95,29.75,29.17,11,1,11,0.72
2013-11-1,44,40,37,43,38,35,95,92,90,29.76,29.18,9,2,9,0.09
2013-11-2,39,36,33,35,32,29,94,86,72,30.19,29.76,6,0,6,0.00
2013-11-3,42,37,32,36,31,28,88,81,68,30.31,30.18,19,2,19,0.00
2013-11-4,48,44,41,42,38,36,92,82,67,30.22,29.96,22,4,22,0.04
2013-11-5,49,40,33,39,33,30,92,75,51,30.24,29.99,11,1,11,0.22
2013-11-6,34,32,30,32,30,25,94,90,81,30.08,29.85,10,2,10,0.15
2013-11-7,33,30,28,30,26,25,92,85,79,30.18,30.08,6,1,9,0.01
2013-11-8,36,31,24,31,25,20,91,78,65,30.24,29.81,14,1,14,0.01
2013-11-9,36,35,33,35,32,31,94,90,83,29.93,29.63,17,2,17,0.27
2013-11-10,36,34,33,32,29,26,92,82,69,30.24,29.92,14,2,14,0.04
2013-11-11,33,24,21,30,19,14,92,81,68,30.58,30.01,15,4,15,0.00
2013-11-12,25,21,18,16,11,6,85,66,46,30.67,30.43,12,1,12,0.00
2013-11-13,46,33,18,31,22,9,72,64,54,30.44,29.84,20,3,20,0.03
2013-11-14,40,36,33,32,30,27,85,77,71,29.85,29.77,11,1,11,0.00
2013-11-15,50,39,31,38,33,28,93,80,63,29.87,29.80,7,1,11,0.00
2013-11-16,50,41,37,49,38,32,94,88,77,29.82,29.34,12,2,12,0.44
2013-11-17,50,44,34,49,41,28,94,89,80,29.41,29.17,17,3,17,0.06
2013-11-18,34,28,25,28,22,18,84,76,68,30.23,29.41,18,5,18,0.00
2013-11-19,34,27,18,24,19,14,89,72,56,30.37,30.19,13,2,13,0.00
2013-11-20,36,33,31,31,28,24,92,79,68,30.20,30.12,16,2,16,0.00
2013-11-21,35,32,25,33,30,22,93,92,88,30.37,30.11,14,1,14,0.10
2013-11-22,28,24,16,23,17,11,90,78,57,30.49,30.35,15,3,15,0.01
2013-11-23,16,11,9,12,5,1,92,78,64,30.69,30.41,15,4,15,0.00
2013-11-24,23,14,7,12,4,-2,83,66,44,30.67,30.01,18,2,18,0.00
2013-11-25,33,29,22,26,21,12,83,74,63,30.01,29.84,16,3,22,0.00
2013-11-26,28,17,8,23,11,4,86,78,61,30.24,29.91,12,2,12,0.00
2013-11-27,22,16,11,13,10,7,88,76,59,30.32,30.23,11,1,11,0.00
2013-11-28,23,16,1,17,11,-4,87,82,74,30.54,30.21,5,0,5,0.00
2013-11-29,24,14,-3,19,10,-8,90,81,72,30.66,30.36,13,1,13,0.00
2013-11-30,34,29,24,25,22,17,87,76,67,30.36,30.06,11,1,11,0.03
2013-12-1,32,29,28,27,25,23,90,85,78,30.19,30.01,3,0,3,0.00
2013-12-2,33,29,27,25,23,22,82,77,70,30.01,29.87,8,0,8,0.00
2013-12-7,5,-1,-7,-1,-7,-12,82,75,66,30.67,30.60,10,1,10,0.00
2013-12-8,8,0,-9,2,-5,-14,84,78,66,30.64,30.12,5,0,5,0.00
2013-12-9,12,3,-8,6,-2,-13,87,79,69,30.12,29.85,15,1,15,0.00
2013-12-10,10,0,-10,2,-6,-14,92,77,68,30.19,29.90,12,1,12,0.00
2013-12-11,3,-3,-9,-6,-10,-14,79,74,64,30.46,30.19,11,1,11,0.00
2013-12-12,10,3,-9,5,-3,-14,81,76,64,30.41,30.17,10,1,10,0.00
2013-12-13,10,5,0,5,-2,-4,82,74,59,30.46,30.21,12,1,12,0.00
2013-12-14,16,9,1,9,4,-4,85,80,73,30.45,29.93,5,0,5,0.00
2013-12-15,12,5,-6,8,0,-10,89,79,69,30.16,29.90,11,2,11,0.00
2013-12-16,14,2,-14,8,-3,-20,92,79,66,30.20,29.95,11,1,11,0.00
2013-12-17,25,16,6,21,12,3,89,84,77,30.03,29.85,11,1,11,0.00
2013-12-18,17,11,4,7,5,-1,82,75,64,30.05,29.76,10,0,10,0.00
2013-12-19,22,15,3,19,11,-1,90,83,74,30.19,29.79,12,2,12,0.00
2013-12-20,21,15,5,16,12,1,88,85,81,30.13,29.92,3,0,4,0.00
2013-12-21,25,19,14,20,15,10,89,85,79,30.08,29.91,2,0,2,0.00
2013-12-22,23,20,16,19,16,12,88,84,77,30.17,29.96,12,1,12,0.00
2013-12-23,16,11,4,12,7,0,92,82,72,30.46,30.17,7,1,7,0.00
2013-12-24,16,8,-3,8,1,-8,92,76,63,30.54,30.27,14,1,14,0.00
2013-12-25,17,12,8,10,7,4,92,81,71,30.27,30.06,12,1,12,0.00
2013-12-26,15,7,-8,7,1,-13,88,78,68,30.28,30.06,4,0,4,0.00
2013-12-27,31,19,-7,27,16,-11,89,86,81,30.29,29.91,14,1,14,0.00
2013-12-28,36,31,22,31,28,19,92,88,81,30.00,29.78,13,1,13,0.12
2013-12-29,22,5,-9,19,0,-14,89,79,70,30.23,29.85,18,4,18,0.00
2013-12-30,1,-6,-15,-8,-13,-20,80,73,64,30.36,30.22,4,0,4,0.00
2013-12-31,0,-7,-15,-8,-13,-20,83,74,63,30.50,30.20,10,1,10,0.00
2014-1-1,2,-6,-15,-7,-12,-20,92,74,65,30.62,30.49,4,0,4,0.00
2014-1-2,4,-9,-21,-4,-15,-26,81,74,67,30.55,30.49,8,0,8,0.00